[[{"header":{"parameterUnit":"m.s-1","parameterCategory":1,"la1":30.2991,"la2":30.254,"lo1":-89.0895,"lo2":-89.0444,"dy":0.0017,"dx":0.0017,"nx":28,"ny":28,"refTime":"2025-04-16T09:00:00:Z","depth":0,"parameterNumber":2,"parameterNumberName":"U-component_of_WINDS"},"data":[0,0,0,0,0,0,0,0,0,0,0,0,0,0,0,0,0,0,0,0,0,0,0,0,0,0,0,0,0,0,0,0,0,0,0,0,0,0,0,0,0,0,0,0,0,0,0,0,0,0,0,0,0,0,0,0,0,0,-1.8381,-1.8381,0,-1.8426,-1.8426,-1.8427,-1.8438,-1.8438,-1.8438,-1.8437,-1.8485,-1.8486,-1.8488,0,0,0,0,0,0,0,0,0,0,0,0,0,-1.8307,-1.8309,-1.8381,-1.8381,-1.8382,-1.8426,-1.8426,-1.8427,-1.8438,-1.8438,-1.8438,-1.8437,-1.8484,-1.8486,-1.8488,0,0,0,0,0,0,0,0,0,0,0,0,0,-1.8345,-1.8309,-1.8381,-1.8393,-1.8394,-1.8426,-1.8426,-1.8427,-1.8438,-1.8438,-1.8438,-1.8437,-1.8484,-1.8486,-1.8488,-1.8511,0,0,-1.8495,-1.8496,0,0,0,0,0,0,0,0,-1.8342,-1.8347,-1.8391,-1.8392,-1.8394,-1.8426,-1.8418,-1.8455,-1.8439,-1.8422,-1.8437,-1.8437,-1.8466,-1.8469,-1.8479,-1.8513,-1.8515,-1.8495,-1.8497,-1.8498,-1.8498,0,0,0,0,0,0,0,-1.834,-1.8345,-1.8399,-1.8391,-1.8393,-1.8397,-1.8402,-1.8425,-1.8446,-1.8423,-1.8424,-1.8429,-1.8467,-1.8477,-1.848,-1.8516,-1.8495,-1.8497,-1.8499,-1.85,-1.8572,-1.8572,0,0,0,0,0,0,-1.8335,-1.8343,-1.8397,-1.84,-1.8367,-1.8399,-1.8404,-1.8416,-1.8445,-1.8449,-1.843,-1.843,-1.8473,-1.8477,-1.8482,-1.8511,-1.8498,-1.85,-1.8501,-1.8571,-1.8572,-1.8573,0,0,0,0,0,0,-1.8333,-1.834,-1.8396,-1.8372,-1.8379,-1.84,-1.8414,-1.8417,-1.8427,-1.845,-1.8454,-1.8436,-1.8473,-1.8479,-1.8504,-1.8512,-1.8501,-1.8503,-1.8571,-1.8572,-1.8572,-1.8568,0,0,0,0,0,0,-1.8331,-1.8339,-1.8347,-1.8372,-1.838,-1.8416,-1.8414,-1.8418,-1.8431,-1.8432,-1.8457,-1.8461,-1.8473,-1.85,-1.8506,-1.8515,-1.8505,-1.857,-1.8571,-1.8572,-1.8567,-1.8569,-1.857,0,0,0,0,0,-1.8328,-1.8344,-1.8348,-1.8354,-1.8391,-1.8416,-1.8421,-1.8434,-1.8432,-1.8441,-1.8455,-1.846,-1.8511,-1.8503,-1.8509,-1.8519,-1.857,-1.8571,-1.8572,-1.8567,-1.8568,-1.8569,0,0,0,0,0,0,-1.832,-1.8348,-1.8352,-1.8376,-1.8394,-1.8418,-1.843,-1.8435,-1.8454,-1.8454,-1.847,-1.8476,-1.85,-1.8512,-1.8503,-1.8543,-1.854,-1.8543,-1.8534,-1.8536,-1.8537,-1.8533,-1.8507,0,0,0,0,0,-1.8321,-1.8339,-1.8362,-1.8381,-1.839,-1.8408,-1.842,-1.8428,-1.8448,-1.8455,-1.8472,-1.8491,-1.8511,-1.8524,-1.8544,-1.857,-1.8576,-1.858,-1.8581,-1.8582,-1.8584,-1.8599,-1.8601,-1.8577,-1.8577,-1.8577,0,0,-1.8324,-1.8341,-1.8351,-1.838,-1.8395,-1.8414,-1.8415,-1.8434,-1.8448,-1.8459,-1.8483,-1.8496,-1.8519,-1.8544,-1.8556,-1.8555,-1.8592,-1.8583,-1.8584,-1.8585,-1.86,-1.8602,-1.8604,-1.8578,-1.8577,-1.8577,0,0,-1.8337,-1.8352,-1.837,-1.8384,-1.8407,-1.8419,-1.8423,-1.8447,-1.8456,-1.8481,-1.8489,-1.8507,-1.8541,-1.8557,-1.8569,-1.859,-1.8595,-1.8596,-1.8601,-1.8616,-1.8618,-1.862,-1.8627,-1.863,-1.8598,-1.8598,-1.8598,0,-1.8337,-1.8365,-1.8378,-1.8397,-1.841,-1.842,-1.8439,-1.8453,-1.8481,-1.849,-1.8488,-1.8532,-1.8548,-1.8577,-1.8583,-1.8592,-1.8598,-1.8593,-1.8616,-1.8618,-1.862,-1.8628,-1.863,-1.8598,-1.8598,-1.8598,-1.8598,0,-1.8364,-1.8383,-1.8395,-1.8421,-1.8436,-1.8454,-1.8471,-1.8484,-1.8492,-1.8505,-1.853,-1.855,-1.8574,-1.8582,-1.859,-1.8613,-1.8612,-1.8613,-1.861,-1.8622,-1.8629,-1.8632,-1.8598,-1.8598,-1.8598,-1.8598,0,0,-1.8373,-1.8407,-1.8411,-1.8423,-1.8449,-1.8464,-1.8484,-1.8507,-1.8518,-1.8538,-1.8555,-1.8584,-1.8586,-1.86,-1.861,-1.8623,-1.8638,-1.8623,-1.8624,-1.8625,-1.8666,-1.8664,-1.8667,-1.8642,-1.8643,-1.8643,-1.8664,0,-1.839,-1.8425,-1.8438,-1.8466,-1.8484,-1.8495,-1.8512,-1.853,-1.8543,-1.8561,-1.8575,-1.8595,-1.8596,-1.8605,-1.8618,-1.8634,-1.8647,-1.8632,-1.8659,-1.866,-1.8652,-1.8671,-1.8669,-1.8687,-1.8667,-1.8667,-1.8667,0,-1.8414,-1.8433,-1.8463,-1.8487,-1.8495,-1.851,-1.8533,-1.855,-1.8571,-1.858,-1.8596,-1.8605,-1.8627,-1.8623,-1.8654,-1.8644,-1.8656,-1.8665,-1.8666,-1.8669,-1.8664,-1.8674,-1.8694,-1.8696,-1.8672,-1.8672,-1.8671,0,-1.8418,-1.8451,-1.8474,-1.8484,-1.8512,-1.8523,-1.8535,-1.8556,-1.8569,-1.8589,-1.8598,-1.8621,-1.8634,-1.8651,-1.8667,-1.8662,-1.8696,-1.8694,-1.8704,-1.8704,-1.871,-1.871,-1.8732,-1.8718,-1.8718,-1.8718,-1.8718,0,-1.8435,-1.8453,-1.8476,-1.8489,-1.851,-1.8526,-1.8546,-1.856,-1.8578,-1.8595,-1.8606,-1.8622,-1.8641,-1.866,-1.8673,-1.8696,-1.8702,-1.871,-1.8713,-1.8709,-1.8708,-1.8716,-1.8715,-1.8719,-1.8719,-1.8719,-1.8719,0,-1.8443,-1.8458,-1.8483,-1.8508,-1.8515,-1.8529,-1.8551,-1.8565,-1.8579,-1.86,-1.8606,-1.8628,-1.865,-1.8668,-1.8697,-1.8706,-1.8731,-1.8734,-1.8724,-1.8725,-1.8735,-1.8734,-1.8763,-1.8768,-1.8751,-1.8751,-1.8751,0,-1.8453,-1.8467,-1.8493,-1.8505,-1.8517,-1.8536,-1.855,-1.8566,-1.858,-1.8605,-1.8617,-1.864,-1.866,-1.8696,-1.8714,-1.8737,-1.8741,-1.875,-1.8745,-1.874,-1.8741,-1.874,-1.8742,-1.8751,-1.8751,-1.8751,-1.8751,0,-1.8469,-1.8476,-1.8494,-1.8516,-1.8532,-1.855,-1.8568,-1.8578,-1.8597,-1.8612,-1.8635,-1.865,-1.8681,-1.8704,-1.8729,-1.8743,-1.8751,-1.8753,-1.8756,-1.8752,-1.8745,-1.8749,-1.8725,-1.8752,-1.8752,-1.8752,-1.8751,-1.8751,-1.8478,-1.8491,-1.8512,-1.8532,-1.8548,-1.8564,-1.8579,-1.8594,-1.8613,-1.8639,-1.8647,-1.8671,-1.8693,-1.8727,-1.8741,-1.8761,-1.8761,-1.8766,-1.8768,-1.8769,-1.8769,-1.8742,-1.8766,-1.8766,-1.8766,-1.8766,-1.8766,0,-1.8495,-1.8508,-1.8527,-1.8552,-1.8569,-1.8574,-1.8594,-1.8608,-1.8629,-1.8648,-1.8667,-1.8694,-1.8717,-1.8737,-1.8761,-1.8773,-1.8777,-1.8779,-1.8778,-1.8781,-1.8767,-1.8761,-1.8775,-1.8775,-1.8775,-1.8775,-1.8775,-1.8775,-1.8506,-1.8528,-1.8538,-1.8568,-1.8582,-1.8605,-1.8616,-1.8632,-1.8648,-1.8677,-1.8696,-1.8709,-1.8729,-1.8754,-1.8776,-1.8781,-1.879,-1.8791,-1.8797,-1.8783,-1.8782,-1.8781,-1.8776,-1.8792,-1.8792,-1.881,-1.881,-1.881]},{"header":{"parameterUnit":"m.s-1","parameterCategory":1,"la1":30.2991,"la2":30.254,"lo1":-89.0895,"lo2":-89.0444,"dy":0.0017,"dx":0.0017,"nx":28,"ny":28,"refTime":"2025-04-16T09:00:00:Z","depth":0,"parameterNumber":3,"parameterNumberName":"V-component_of_WINDS"},"data":[0,0,0,0,0,0,0,0,0,0,0,0,0,0,0,0,0,0,0,0,0,0,0,0,0,0,0,0,0,0,0,0,0,0,0,0,0,0,0,0,0,0,0,0,0,0,0,0,0,0,0,0,0,0,0,0,0,0,5.3897,5.3897,0,5.393,5.393,5.393,5.3903,5.3902,5.3901,5.39,5.3929,5.3931,5.3933,0,0,0,0,0,0,0,0,0,0,0,0,0,5.3807,5.3809,5.3897,5.3897,5.3898,5.3929,5.393,5.393,5.3903,5.3902,5.3901,5.3899,5.3929,5.3931,5.3933,0,0,0,0,0,0,0,0,0,0,0,0,0,5.3843,5.381,5.3897,5.3888,5.3888,5.3929,5.393,5.393,5.3904,5.3902,5.39,5.3899,5.3928,5.3931,5.3934,5.3984,0,0,5.3942,5.3943,0,0,0,0,0,0,0,0,5.3841,5.3847,5.3889,5.3889,5.3888,5.3911,5.3909,5.3948,5.3904,5.3897,5.39,5.3898,5.3924,5.3927,5.3937,5.3986,5.3987,5.3942,5.3944,5.3945,5.3946,0,0,0,0,0,0,0,5.3839,5.3845,5.391,5.389,5.3889,5.3881,5.3885,5.3916,5.392,5.3898,5.3896,5.39,5.3924,5.3934,5.3937,5.3988,5.3942,5.3945,5.3946,5.3947,5.4079,5.4081,0,0,0,0,0,0,5.3838,5.3843,5.3909,5.3911,5.386,5.3884,5.3888,5.3905,5.3919,5.392,5.3902,5.3899,5.3931,5.3934,5.3938,5.3999,5.3945,5.3948,5.3949,5.4077,5.408,5.4082,0,0,0,0,0,0,5.3836,5.3844,5.3907,5.3877,5.3884,5.3888,5.3907,5.3907,5.3917,5.3922,5.3923,5.3912,5.3929,5.3935,5.3973,5.3999,5.3949,5.3951,5.4075,5.4078,5.4081,5.412,0,0,0,0,0,0,5.3834,5.3844,5.3864,5.3877,5.3886,5.3943,5.3909,5.3908,5.3923,5.3919,5.3932,5.3933,5.3928,5.3969,5.3976,5.4002,5.3954,5.4073,5.4076,5.408,5.4117,5.4124,5.413,0,0,0,0,0,5.3831,5.3873,5.3865,5.3873,5.3912,5.3945,5.3949,5.3944,5.3925,5.3945,5.3948,5.3932,5.3996,5.3974,5.3981,5.4008,5.4071,5.4075,5.4079,5.4113,5.4122,5.413,0,0,0,0,0,0,5.3861,5.3875,5.3866,5.3914,5.3929,5.394,5.3965,5.3954,5.3973,5.3969,5.3961,5.3964,5.4005,5.4011,5.3986,5.4058,5.403,5.4036,5.4053,5.4062,5.4069,5.4067,5.3956,0,0,0,0,0,5.3874,5.3901,5.3911,5.3952,5.396,5.3961,5.3976,5.3971,5.3985,5.399,5.3996,5.4009,5.4032,5.4047,5.4068,5.4117,5.4119,5.4139,5.4146,5.4152,5.4157,5.4183,5.4192,5.4095,5.4095,5.4095,0,0,5.39,5.3911,5.3928,5.3959,5.3969,5.3996,5.3967,5.3996,5.4016,5.3994,5.4032,5.4037,5.4051,5.4095,5.4114,5.41,5.4184,5.4157,5.4162,5.4164,5.4188,5.4197,5.4205,5.4098,5.4097,5.4097,0,0,5.3961,5.3972,5.4008,5.402,5.4036,5.4037,5.4046,5.4059,5.4061,5.4099,5.4083,5.4106,5.4145,5.4156,5.4166,5.4231,5.4218,5.4238,5.4274,5.4299,5.4307,5.4314,5.4337,5.4345,5.4243,5.4243,5.4244,0,5.3991,5.4033,5.4028,5.4059,5.4073,5.4055,5.4091,5.4102,5.4124,5.4133,5.4117,5.4167,5.4175,5.4221,5.4237,5.4246,5.4255,5.4237,5.4307,5.4313,5.4319,5.4341,5.435,5.4246,5.4246,5.4245,5.4245,0,5.4068,5.4097,5.4124,5.4148,5.4164,5.4197,5.4196,5.4213,5.4206,5.4208,5.4246,5.4256,5.4278,5.4289,5.4282,5.4334,5.4325,5.4308,5.4279,5.4331,5.4351,5.436,5.4249,5.4248,5.4248,5.4247,0,0,5.415,5.4171,5.4181,5.4191,5.4208,5.423,5.4261,5.4285,5.4299,5.4315,5.4341,5.4375,5.436,5.4372,5.4366,5.4388,5.4439,5.4368,5.4368,5.4381,5.4496,5.4508,5.4518,5.443,5.4431,5.4432,5.4494,0,5.4212,5.427,5.4266,5.4319,5.4345,5.4329,5.4356,5.4369,5.4372,5.4393,5.4395,5.4419,5.4397,5.4404,5.4425,5.4428,5.4461,5.4423,5.4453,5.4454,5.445,5.4529,5.4542,5.46,5.4502,5.4504,5.4505,0,5.4293,5.4313,5.4369,5.4382,5.4393,5.4418,5.4439,5.446,5.4473,5.4473,5.4487,5.4478,5.4508,5.4479,5.4521,5.4496,5.4507,5.451,5.4512,5.4515,5.4482,5.4533,5.4619,5.4627,5.4517,5.4516,5.4515,0,5.4347,5.4388,5.4427,5.4436,5.4452,5.447,5.4477,5.4489,5.4503,5.4521,5.453,5.4551,5.4562,5.4578,5.4573,5.4553,5.4616,5.4587,5.4616,5.4617,5.4631,5.463,5.4719,5.4638,5.4638,5.4638,5.4638,0,5.4417,5.4452,5.4451,5.4475,5.4513,5.4508,5.4546,5.455,5.4561,5.4585,5.4571,5.4593,5.4587,5.4608,5.4605,5.464,5.4645,5.4645,5.4644,5.4647,5.4647,5.4654,5.465,5.464,5.464,5.4639,5.4639,0,5.4484,5.4485,5.4527,5.4539,5.4542,5.457,5.458,5.4601,5.4603,5.4633,5.4639,5.4641,5.4665,5.4663,5.469,5.4688,5.4731,5.4725,5.4727,5.4726,5.4756,5.4753,5.4853,5.4865,5.4776,5.4777,5.4778,0,5.4529,5.4556,5.4571,5.4586,5.4595,5.462,5.4635,5.463,5.4645,5.4663,5.4682,5.4706,5.4725,5.4764,5.4767,5.4788,5.4782,5.4816,5.4785,5.4787,5.4782,5.4781,5.4783,5.4822,5.4823,5.4823,5.4824,0,5.4608,5.4607,5.463,5.4652,5.467,5.4688,5.4703,5.4716,5.4712,5.473,5.4756,5.4771,5.4799,5.4822,5.4842,5.4847,5.4835,5.4834,5.4842,5.4845,5.4845,5.4845,5.4744,5.4832,5.4831,5.483,5.483,5.483,5.4666,5.4689,5.4703,5.4728,5.4739,5.4754,5.4775,5.4779,5.4801,5.4824,5.482,5.4848,5.486,5.4885,5.4893,5.4915,5.4903,5.4914,5.4917,5.492,5.4923,5.4841,5.4918,5.4918,5.4918,5.4918,5.4918,0,5.4744,5.4753,5.4776,5.4798,5.4818,5.4806,5.4822,5.4839,5.4864,5.4877,5.4896,5.4925,5.4947,5.4952,5.4973,5.4989,5.4984,5.4995,5.4994,5.4995,5.4933,5.4924,5.4999,5.4999,5.4999,5.4999,5.4999,5.4999,5.4787,5.4826,5.4826,5.4869,5.4877,5.4906,5.4916,5.4929,5.4939,5.4973,5.4992,5.4995,5.5004,5.5026,5.5045,5.5046,5.5054,5.5067,5.5066,5.5008,5.5,5.4992,5.4984,5.5069,5.5069,5.5126,5.5127,5.5127]}]]